#timestamp,LO_Frequency,Hit,StdDev 
1508486415.3,286046996.8,N
1508486435.2,286046997.1,N
1508486455.0,286046995.4,N
1508486455.9,286046995.4,N
1508486475.7,286047000.6,N
1508486495.6,286047002.0,N
1508486515.4,286047000.2,N
1508486535.2,286046996.6,N
1508486555.1,286047000.4,N
1508486556.0,286047000.4,N
1508486575.8,286047002.3,N
1508486595.6,286047002.2,N
1508486615.5,286047001.9,N
1508486635.3,286046998.3,N
1508486655.1,286046999.2,N
1508486675.9,286046996.5,N
1508486695.7,286046997.8,N
1508486715.5,286046993.6,N
1508486735.4,286046994.7,N
1508486755.2,286046990.3,N
1508486775.0,286046988.5,N
1508486775.9,286046988.5,N
1508486795.8,286046992.5,N
1508486815.6,286046994.3,N
1508486835.4,286046993.4,N
1508486855.3,286046994.6,N
1508486875.1,286046996.3,N
1508486895.8,286046992.4,N
1508486915.7,286046993.0,N
1508486935.5,286046994.6,N
1508486955.3,286046990.5,N
1508486975.2,286046992.8,N
1508486995.9,286046996.1,N
1508487015.7,286046995.6,N
1508487035.6,286046996.4,N
1508487055.4,286046992.0,N
1508487075.2,286046993.3,N
1508487095.1,286046993.6,N
1508487096.0,286046993.6,N
1508487115.8,286046991.8,N
1508487135.6,286046993.2,N
1508487155.5,286046994.1,N
1508487175.3,286046996.2,N
1508487195.1,286046995.7,N
1508487215.9,286046994.9,N
1508487235.7,286046996.8,N
1508487255.5,286047000.5,N
1508487275.4,286046997.4,N
1508487295.2,286047000.2,N
1508487315.0,286046997.7,N
1508487315.9,286046997.7,N
1508487335.8,286046992.2,Y
1508487355.6,286046997.8,P
1508487375.4,286047001.9,N
1508487395.3,286047000.1,N
1508487415.1,286047001.2,N
1508487416.0,286047001.2,N
1508487435.8,286047000.5,N
1508487455.7,286046996.6,N
1508487475.5,286047000.7,N
1508487495.3,286047001.2,N
1508487515.2,286047001.9,N
1508487535.9,286047004.0,N
1508487555.7,286047000.5,N
1508487575.5,286047003.7,N
1508487595.4,286047004.0,N
1508487615.2,286047000.4,N
1508487635.0,286046999.0,N
1508487635.9,286046999.0,N
1508487655.8,286046995.6,N
1508487675.6,286047001.1,N
1508487695.4,286046996.8,N
1508487715.3,286046998.0,N
1508487735.1,286047000.8,N
1508487755.8,286047002.5,N
1508487775.7,286047001.0,N
1508487795.5,286046999.3,N
1508487815.3,286046997.8,N
1508487835.2,286046991.8,Y
1508487855.9,286046992.5,P
1508487875.7,286046992.6,N
1508487895.6,286046993.2,N
1508487915.4,286046992.6,N
1508487935.2,286046993.0,N
1508487955.1,286046992.2,N
1508487956.0,286046992.2,Y
1508487975.8,286047002.0,P
1508487995.6,286047004.0,N
1508488015.5,286047002.6,N
1508488035.3,286047003.6,N
1508488055.1,286047005.3,N
1508488075.9,286047004.1,N
1508488095.7,286047003.1,N
1508488115.5,286047001.8,N
1508488135.4,286046999.8,N
1508488155.2,286046999.4,N
1508488175.0,286046997.1,N
1508488175.9,286046997.1,N
1508488195.7,286046997.2,N
1508488215.6,286046998.3,N
1508488235.4,286046998.3,N
1508488255.2,286047000.5,N
1508488275.1,286047002.1,N
1508488276.0,286047002.1,N
1508488295.8,286046999.8,N
1508488315.6,286047003.4,N
1508488335.5,286047004.5,N
1508488355.3,286047002.5,N
1508488375.1,286047000.9,N
1508488395.9,286046998.3,N
1508488415.7,286047003.5,N
1508488435.5,286047003.4,N
1508488455.4,286047004.6,N
1508488475.2,286047007.2,N
1508488495.0,286047003.4,N
1508488495.9,286047003.4,N
1508488515.8,286046999.7,N
1508488535.6,286047000.4,N
1508488555.4,286047003.1,N
1508488575.3,286047007.1,N
1508488595.1,286047003.6,N
1508488596.0,286047003.6,N
1508488615.8,286047004.4,N
1508488635.7,286047007.4,N
1508488655.5,286047001.7,N
1508488675.3,286047002.4,N
1508488695.1,286047001.5,N
1508488715.9,286047004.0,N
1508488735.7,286047000.0,N
1508488755.5,286047000.9,N
1508488775.4,286046996.5,N
1508488795.2,286047002.7,N
1508488815.0,286047001.9,N
1508488815.9,286047001.9,N
1508488835.8,286047004.2,N
1508488855.6,286047001.3,N
1508488875.4,286047001.2,N
1508488895.3,286047004.2,N
1508488915.1,286047000.3,N
1508488916.0,286047000.3,N
1508488935.8,286047001.1,N
1508488955.7,286047003.4,N
1508488975.5,286047003.0,N
1508488995.3,286047012.2,Y
1508489015.2,286047004.8,P
1508489035.9,286047007.2,P
1508489055.7,286047005.0,N
1508489075.6,286047004.5,N
1508489095.4,286047004.9,Y
1508489115.2,286047000.4,P
1508489135.1,286047000.3,N
1508489136.0,286047000.3,N
1508489155.8,286047000.0,N
1508489175.6,286046997.0,N
1508489195.5,286047000.8,N
1508489215.3,286046999.2,N
1508489235.1,286046997.9,N
1508489255.9,286047000.7,N
1508489275.7,286047003.2,N
1508489295.5,286047001.0,N
1508489315.3,286047000.7,N
1508489335.2,286046998.2,N
1508489355.0,286047000.6,N
1508489355.9,286047000.6,N
1508489375.7,286046998.1,N
1508489395.6,286047000.6,N
1508489415.4,286047001.4,N
1508489435.2,286047002.2,N
1508489455.1,286047003.5,N
1508489456.0,286047003.5,N
1508489475.8,286046999.3,N
1508489495.6,286046999.9,N
1508489515.5,286047001.2,N
1508489535.3,286046997.1,N
1508489555.1,286047000.0,N
1508489575.9,286046999.4,N
1508489595.7,286047000.9,N
1508489615.5,286047002.1,N
1508489635.4,286047002.1,N
1508489655.2,286047001.4,N
1508489675.0,286047001.6,N
1508489675.9,286047001.6,N
1508489695.8,286047001.7,N
1508489715.6,286047000.5,N
1508489735.4,286047000.6,N
1508489755.3,286047000.8,N
1508489775.1,286046999.6,N
1508489776.0,286046999.6,N
1508489795.8,286046995.3,Y
1508489815.7,286046995.0,P
1508489835.5,286046995.6,N
1508489855.3,286046993.8,N
1508489875.2,286046990.9,Y
1508489895.0,286046994.2,P
1508489895.9,286046994.2,P
1508489915.7,286046995.9,P
1508489935.6,286046996.9,Y
1508489955.4,286047002.4,P
1508489975.3,286047001.5,N
1508489995.1,286047002.6,N
1508489996.0,286047002.6,N
